Location: Newark
(13.5236°S, 71.9791°W)
Time: 14:49:53
(UTC+00:00)

Hubble Space Telescope - Visible Passes

Search period start: 17 July 2019 00:00
Search period end: 27 July 2019 00:00
Orbit: 536 x 540 km, 28.5° (Epoch: 17 July)

Date Brightness Start Highest point End Pass type
(mag) Time Alt. Az. Time Alt. Az. Time Alt. Az.
17 Jul 0.9 00:08:26 10° NW 00:12:25 63° NNE 00:12:25 63° NNE visible
17 Jul 3.7 08:44:43 15° ENE 08:44:43 15° ENE 08:45:30 10° ENE visible
17 Jul 2.6 10:20:04 13° WNW 10:22:25 19° NNW 10:25:24 10° NNE visible
17 Jul 0.6 23:57:51 10° WNW 00:02:00 89° NNE 00:02:38 63° ESE visible
18 Jul 4.1 08:34:57 10° ENE 08:34:57 10° ENE 08:34:59 10° ENE visible
18 Jul 2.9 10:10:18 12° NW 10:11:51 14° NNW 10:14:02 10° N visible
18 Jul 0.9 23:47:22 10° WNW 23:51:30 67° SSW 23:52:51 39° SE visible
19 Jul 1.3 23:36:58 10° W 23:40:59 49° SSW 23:43:03 25° SE visible
20 Jul 1.8 23:26:38 10° W 23:30:30 37° SSW 23:33:14 17° SE visible
21 Jul 2.2 23:16:24 10° W 23:20:02 29° SSW 23:23:23 12° SE visible
22 Jul 2.5 23:06:14 10° WSW 23:09:36 23° SSW 23:12:58 10° SE visible
23 Jul 2.7 22:56:07 10° WSW 22:59:10 19° SSW 23:02:14 10° SSE visible
